Location: Carri�res
(48.9069°N, 2.1792°E)
Time: 13:50:59
(UTC+00:00)

USA 234 - Pass Details

Date: 17 January 2021
Orbit: 1100 x 1107 km, 123.0° (Epoch: 25 February)

Event Time Altitude Azimuth Distance (km) Brightness Sun altitude
Exits shadow 17:18:56 10° 77° (ENE) 2,970 4.9 -8.7°
Reaches altitude 10° 17:18:57 10° 77° (ENE) 2,963 4.9 -8.7°
Maximum altitude 17:25:05 45° 7° (N) 1,461 3.7 -9.6°
Drops below altitude 10° 17:31:15 10° 297° (WNW) 2,969 6.2 -10.6°
Sets 17:33:49 0° 292° (WNW) 3,928 7.0 -11.0°
